TimePST,TemperatureF,Dew PointF,Humidity,Sea Level PressureIn,VisibilityMPH,Wind Direction,Wind SpeedMPH,Gust SpeedMPH,PrecipitationIn,Events,Conditions,WindDirDegrees,DateUTC
12:23 AM,57.2,53.6,88,30.22,4.0,NW,3.5,-,N/A,,Haze,310,2012-11-29 08:23:00
12:53 AM,57.0,53.1,87,30.21,4.0,West,3.5,-,N/A,,Overcast,270,2012-11-29 08:53:00
1:53 AM,57.0,53.1,87,30.20,4.0,Calm,Calm,-,N/A,,Overcast,0,2012-11-29 09:53:00
2:47 AM,57.2,53.6,88,30.21,2.5,NW,3.5,-,0.00,Rain,Light Rain,320,2012-11-29 10:47:00
2:53 AM,57.0,54.0,89,30.20,2.5,Calm,Calm,-,0.00,Rain,Light Rain,0,2012-11-29 10:53:00
3:09 AM,57.2,53.6,88,30.20,1.5,Calm,Calm,-,0.00,Rain,Light Rain,0,2012-11-29 11:09:00
3:21 AM,57.2,53.6,88,30.20,2.0,Calm,Calm,-,0.00,Rain,Light Rain,0,2012-11-29 11:21:00
3:39 AM,57.2,53.6,88,30.20,1.8,Calm,Calm,-,0.00,Rain,Light Rain,0,2012-11-29 11:39:00
3:43 AM,57.2,53.6,88,30.20,2.0,Calm,Calm,-,0.00,Rain,Light Rain,0,2012-11-29 11:43:00
3:51 AM,57.2,55.4,94,30.20,1.8,Calm,Calm,-,0.00,,Overcast,0,2012-11-29 11:51:00
3:52 AM,57.0,55.0,93,30.19,1.8,Calm,Calm,-,0.00,,Overcast,0,2012-11-29 11:52:00
4:28 AM,57.2,53.6,88,30.20,2.0,Calm,Calm,-,0.00,,Overcast,0,2012-11-29 12:28:00
4:36 AM,57.2,53.6,88,30.19,1.5,Variable,3.5,-,0.01,Rain,Light Rain,0,2012-11-29 12:36:00
4:47 AM,55.4,53.6,94,30.19,2.5,East,6.9,-,0.01,Rain,Light Rain,90,2012-11-29 12:47:00
4:48 AM,55.9,53.1,90,30.19,2.5,East,6.9,-,0.01,,Overcast,90,2012-11-29 12:48:00
5:19 AM,55.4,53.6,94,30.21,1.2,East,3.5,-,0.02,Rain,Rain,90,2012-11-29 13:19:00
5:53 AM,55.9,54.0,93,30.21,1.2,Calm,Calm,-,0.06,Rain,Rain,0,2012-11-29 13:53:00
6:53 AM,55.9,55.0,97,30.22,1.2,Calm,Calm,-,0.00,,Overcast,0,2012-11-29 14:53:00
7:53 AM,57.0,55.0,93,30.23,2.0,Calm,Calm,-,0.00,,Overcast,0,2012-11-29 15:53:00
8:51 AM,57.2,55.4,94,30.24,2.0,Calm,Calm,-,0.00,,Overcast,0,2012-11-29 16:51:00
8:53 AM,57.9,55.0,90,30.24,2.0,Calm,Calm,-,0.00,,Overcast,0,2012-11-29 16:53:00
9:53 AM,59.0,55.9,90,30.25,2.0,Calm,Calm,-,N/A,,Overcast,0,2012-11-29 17:53:00
10:00 AM,59.0,55.4,88,30.25,2.0,Calm,Calm,-,N/A,,Overcast,0,2012-11-29 18:00:00
10:35 AM,60.8,55.4,82,30.24,2.0,Calm,Calm,-,N/A,,Overcast,0,2012-11-29 18:35:00
10:53 AM,62.1,57.0,84,30.23,4.0,Calm,Calm,-,N/A,,Haze,0,2012-11-29 18:53:00
11:24 AM,60.8,55.4,82,30.23,2.0,Calm,Calm,-,N/A,,Haze,0,2012-11-29 19:24:00
11:53 AM,63.0,57.9,84,30.19,4.0,NNE,4.6,-,0.00,,Haze,20,2012-11-29 19:53:00
12:53 PM,63.0,57.9,84,30.17,4.0,Calm,Calm,-,N/A,,Haze,0,2012-11-29 20:53:00
1:53 PM,64.0,57.9,80,30.16,5.0,West,6.9,-,N/A,,Haze,260,2012-11-29 21:53:00
2:53 PM,63.0,59.0,87,30.15,5.0,West,8.1,-,N/A,,Overcast,270,2012-11-29 22:53:00
3:53 PM,62.1,60.1,93,30.15,6.0,West,9.2,-,N/A,,Overcast,260,2012-11-29 23:53:00
4:53 PM,60.1,57.9,93,30.15,6.0,West,4.6,-,N/A,,Mostly Cloudy,270,2012-11-30 00:53:00
5:53 PM,60.1,57.0,90,30.16,10.0,West,5.8,-,N/A,,Mostly Cloudy,270,2012-11-30 01:53:00
6:00 PM,60.8,57.2,88,30.16,10.0,West,6.9,-,N/A,,Mostly Cloudy,270,2012-11-30 02:00:00
6:53 PM,61.0,57.9,90,30.17,10.0,NW,3.5,-,N/A,,Mostly Cloudy,310,2012-11-30 02:53:00
7:53 PM,62.1,57.0,84,30.17,10.0,SSW,9.2,-,N/A,,Mostly Cloudy,210,2012-11-30 03:53:00
8:53 PM,61.0,57.0,87,30.18,8.0,North,3.5,-,N/A,,Mostly Cloudy,10,2012-11-30 04:53:00
9:00 PM,60.8,57.2,88,30.18,8.0,Calm,Calm,-,N/A,,Mostly Cloudy,0,2012-11-30 05:00:00
9:50 PM,60.8,57.2,88,30.18,6.0,Calm,Calm,-,N/A,,Overcast,0,2012-11-30 05:50:00
9:53 PM,60.1,57.9,93,30.18,6.0,Calm,Calm,-,N/A,,Overcast,0,2012-11-30 05:53:00
10:53 PM,60.1,57.9,93,30.18,5.0,Calm,Calm,-,N/A,,Overcast,0,2012-11-30 06:53:00
11:53 PM,61.0,57.9,90,30.17,5.0,Calm,Calm,-,N/A,,Overcast,0,2012-11-30 07:53:00